| time (UTC) | temp C | wind direction | speed KPH | gust KPH | rain 1hr cm | rain 24hr cm | rain mn cm | humidity % | barometer mb |
| 20260906121100 | 22 | 37 | 0.0 | 0.0 | 0.00 | 1.09 | 0.00 | 92 | 1012.7 |
| 20260906120600 | 22 | 37 | 0.0 | 0.0 | 0.00 | 1.09 | 0.00 | 92 | 1012.6 |
| 20260906120059 | 22 | 37 | 0.0 | 0.0 | 0.00 | 1.09 | 0.00 | 92 | 1012.6 |
| 20260906115559 | 22 | 37 | 0.0 | 0.0 | 0.00 | 1.09 | 0.00 | 92 | 1012.7 |
| 20260906115057 | 22 | 37 | 0.0 | 0.0 | 0.00 | 1.09 | 0.00 | 93 | 1012.5 |
| 20260906114611 | 22 | 37 | 0.0 | 0.0 | 0.00 | 1.09 | 0.00 | 93 | 1012.6 |
| 20260906114056 | 22 | 37 | 0.0 | 0.0 | 0.00 | 1.09 | 0.00 | 93 | 1012.5 |
| 20260906113555 | 22 | 37 | 0.0 | 1.6 | 0.00 | 1.09 | 0.00 | 93 | 1012.5 |
| 20260906113058 | 22 | 37 | 0.0 | 1.6 | 0.00 | 1.09 | 0.00 | 93 | 1012.3 |
| 20260906112554 | 22 | 38 | 0.0 | 0.0 | 0.00 | 1.09 | 0.00 | 93 | 1012.3 |
| 20260906112053 | 22 | 38 | 0.0 | 0.0 | 0.00 | 1.09 | 0.00 | 94 | 1012.2 |
| 20260906111554 | 22 | 38 | 0.0 | 0.0 | 0.00 | 1.09 | 0.00 | 94 | 1012.0 |
| 20260906111051 | 21 | 38 | 0.0 | 0.0 | 0.00 | 1.09 | 0.00 | 93 | 1012.1 |
| 20260906110553 | 21 | 38 | 0.0 | 0.0 | 0.00 | 1.09 | 0.00 | 94 | 1012.0 |
| 20260906110049 | 21 | 38 | 0.0 | 0.0 | 0.00 | 1.09 | 0.00 | 94 | 1011.9 |
| 20260906105550 | 21 | 38 | 0.0 | 0.0 | 0.00 | 1.09 | 0.00 | 94 | 1011.8 |
| 20260906105049 | 21 | 38 | 0.0 | 0.0 | 0.00 | 1.09 | 0.00 | 94 | 1011.6 |
| 20260906104548 | 21 | 38 | 0.0 | 0.0 | 0.00 | 1.09 | 0.00 | 94 | 1011.5 |
| 20260906104048 | 21 | 38 | 0.0 | 4.8 | 0.00 | 1.09 | 0.00 | 94 | 1011.5 |
| 20260906103548 | 21 | 37 | 0.0 | 4.8 | 0.00 | 1.09 | 0.00 | 95 | 1011.5 |
| 20260906103048 | 21 | 334 | 0.0 | 0.0 | 0.00 | 1.09 | 0.00 | 95 | 1011.5 |
| 20260906102547 | 21 | 334 | 0.0 | 0.0 | 0.00 | 1.09 | 0.00 | 95 | 1011.2 |
| 20260906102046 | 21 | 334 | 0.0 | 3.2 | 0.00 | 1.09 | 0.00 | 95 | 1011.0 |
| 20260906101547 | 21 | 334 | 0.0 | 3.2 | 0.00 | 1.09 | 0.00 | 95 | 1011.0 |
| 20260906101048 | 21 | 334 | 0.0 | 1.6 | 0.00 | 1.09 | 0.00 | 95 | 1011.3 |
| 20260906100546 | 21 | 334 | 0.0 | 1.6 | 0.00 | 1.09 | 0.00 | 95 | 1011.3 |
| 20260906100046 | 21 | 334 | 0.0 | 4.8 | 0.00 | 1.09 | 0.00 | 95 | 1011.2 |
| 20260906095545 | 21 | 330 | 1.6 | 4.8 | 0.00 | 1.09 | 0.00 | 95 | 1011.2 |
| 20260906095050 | 21 | 330 | 0.0 | 3.2 | 0.00 | 1.09 | 0.00 | 95 | 1011.2 |
| 20260906094545 | 21 | 330 | 0.0 | 1.6 | 0.00 | 1.09 | 0.00 | 95 | 1011.2 |
| 20260906094045 | 21 | 329 | 0.0 | 4.8 | 0.00 | 1.09 | 0.00 | 95 | 1011.2 |
| 20260906093545 | 21 | 329 | 0.0 | 4.8 | 0.00 | 1.09 | 0.00 | 95 | 1011.2 |
| 20260906093045 | 21 | 329 | 0.0 | 1.6 | 0.00 | 1.09 | 0.00 | 95 | 1011.1 |
| 20260906092545 | 21 | 329 | 0.0 | 0.0 | 0.00 | 1.09 | 0.00 | 95 | 1011.0 |
| 20260906092045 | 21 | 329 | 0.0 | 0.0 | 0.00 | 1.09 | 0.00 | 95 | 1011.1 |
| 20260906091545 | 21 | 329 | 0.0 | 0.0 | 0.00 | 1.09 | 0.00 | 95 | 1011.0 |
| 20260906091044 | 21 | 329 | 0.0 | 0.0 | 0.00 | 1.09 | 0.00 | 95 | 1011.0 |
| 20260906090544 | 21 | 329 | 0.0 | 0.0 | 0.00 | 1.09 | 0.00 | 95 | 1011.1 |
| 20260906090044 | 21 | 329 | 0.0 | 0.0 | 0.00 | 1.09 | 0.00 | 95 | 1011.0 |
| 20260906085543 | 21 | 329 | 0.0 | 3.2 | 0.00 | 1.09 | 0.00 | 96 | 1011.0 |
| 20260906085043 | 21 | 328 | 0.0 | 3.2 | 0.00 | 1.09 | 0.00 | 96 | 1010.9 |
| 20260906084544 | 21 | 328 | 0.0 | 0.0 | 0.00 | 1.09 | 0.00 | 96 | 1011.0 |
| 20260906084043 | 21 | 328 | 0.0 | 1.6 | 0.00 | 1.09 | 0.00 | 96 | 1011.1 |
| 20260906083543 | 21 | 328 | 0.0 | 1.6 | 0.00 | 1.09 | 0.00 | 96 | 1011.2 |
| 20260906083048 | 21 | 328 | 0.0 | 0.0 | 0.00 | 1.09 | 0.00 | 96 | 1011.2 |
| 20260906082543 | 21 | 328 | 0.0 | 0.0 | 0.00 | 1.09 | 0.00 | 96 | 1011.1 |
| 20260906082043 | 21 | 328 | 0.0 | 0.0 | 0.00 | 1.09 | 0.00 | 96 | 1011.3 |
| 20260906081548 | 21 | 328 | 0.0 | 0.0 | 0.00 | 1.09 | 0.00 | 96 | 1011.0 |
| 20260906081042 | 21 | 328 | 0.0 | 3.2 | 0.00 | 1.09 | 0.00 | 96 | 1011.0 |
| 20260906080542 | 21 | 328 | 0.0 | 3.2 | 0.00 | 1.09 | 0.00 | 96 | 1011.4 |
| 20260906080043 | 21 | 329 | 0.0 | 0.0 | 0.00 | 1.09 | 0.00 | 96 | 1011.3 |
| 20260906075541 | 21 | 329 | 0.0 | 0.0 | 0.00 | 1.09 | 0.00 | 96 | 1011.3 |
| 20260906075042 | 21 | 329 | 0.0 | 4.8 | 0.00 | 1.09 | 0.00 | 97 | 1011.0 |
| 20260906074558 | 21 | 329 | 0.0 | 4.8 | 0.00 | 1.09 | 0.00 | 97 | 1011.0 |
| 20260906074041 | 21 | 329 | 0.0 | 4.8 | 0.00 | 1.09 | 0.00 | 97 | 1011.1 |
| 20260906073542 | 21 | 329 | 0.0 | 4.8 | 0.00 | 1.09 | 0.00 | 97 | 1011.0 |
| 20260906073042 | 22 | 329 | 0.0 | 3.2 | 0.00 | 1.09 | 0.00 | 96 | 1011.1 |
| 20260906072542 | 22 | 329 | 0.0 | 3.2 | 0.00 | 1.09 | 0.00 | 97 | 1010.8 |
| 20260906072045 | 22 | 329 | 0.0 | 0.0 | 0.00 | 1.09 | 0.00 | 97 | 1010.8 |
| 20260906071541 | 22 | 329 | 0.0 | 3.2 | 0.00 | 1.09 | 0.00 | 97 | 1010.7 |
| 20260906071040 | 22 | 329 | 0.0 | 6.4 | 0.00 | 1.09 | 0.00 | 97 | 1010.7 |
| 20260906070540 | 22 | 329 | 0.0 | 6.4 | 0.00 | 1.09 | 0.00 | 97 | 1010.5 |
| 20260906070039 | 21 | 329 | 0.0 | 0.0 | 0.00 | 1.09 | 0.00 | 97 | 1010.6 |
| 20260906065538 | 21 | 329 | 0.0 | 0.0 | 0.00 | 1.09 | 0.00 | 97 | 1010.6 |
| 20260906065038 | 21 | 329 | 0.0 | 0.0 | 0.00 | 1.09 | 0.00 | 97 | 1010.6 |
| 20260906064537 | 21 | 329 | 0.0 | 0.0 | 0.00 | 1.09 | 0.00 | 97 | 1010.7 |
| 20260906064036 | 21 | 329 | 0.0 | 0.0 | 0.00 | 1.09 | 0.00 | 97 | 1010.9 |
| 20260906063537 | 21 | 329 | 0.0 | 0.0 | 0.00 | 1.09 | 0.00 | 97 | 1010.8 |
| 20260906063037 | 21 | 329 | 0.0 | 0.0 | 0.00 | 1.09 | 0.00 | 96 | 1010.8 |
| 20260906062537 | 21 | 329 | 0.0 | 0.0 | 0.00 | 1.09 | 0.00 | 97 | 1010.8 |
| 20260906062037 | 21 | 329 | 0.0 | 0.0 | 0.00 | 1.09 | 0.00 | 97 | 1010.9 |
| 20260906061536 | 21 | 329 | 0.0 | 0.0 | 0.00 | 1.09 | 0.00 | 96 | 1010.9 |
| 20260906061036 | 21 | 329 | 0.0 | 0.0 | 0.00 | 1.09 | 0.00 | 96 | 1010.9 |
| 20260906060535 | 21 | 329 | 0.0 | 0.0 | 0.00 | 1.09 | 0.00 | 96 | 1010.9 |
| 20260906060035 | 21 | 329 | 0.0 | 0.0 | 0.00 | 1.09 | 0.00 | 96 | 1010.7 |
| 20260906055535 | 21 | 329 | 0.0 | 0.0 | 0.00 | 1.09 | 0.00 | 96 | 1010.9 |
| 20260906055035 | 21 | 329 | 0.0 | 0.0 | 0.00 | 1.09 | 0.00 | 96 | 1010.9 |
| 20260906054536 | 21 | 329 | 0.0 | 0.0 | 0.00 | 1.09 | 0.00 | 96 | 1011.0 |
| 20260906054035 | 21 | 329 | 0.0 | 0.0 | 0.00 | 1.09 | 0.00 | 96 | 1010.9 |
| 20260906053532 | 21 | 329 | 0.0 | 0.0 | 0.00 | 1.09 | 0.00 | 96 | 1011.0 |
| 20260906053035 | 21 | 329 | 0.0 | 0.0 | 0.00 | 1.09 | 0.00 | 96 | 1011.1 |
| 20260906052533 | 21 | 329 | 0.0 | 0.0 | 0.00 | 1.09 | 0.00 | 96 | 1011.1 |
| 20260906052032 | 22 | 329 | 0.0 | 0.0 | 0.00 | 1.09 | 0.00 | 96 | 1011.2 |
| 20260906051532 | 21 | 329 | 0.0 | 0.0 | 0.00 | 1.09 | 0.00 | 96 | 1011.1 |
| 20260906051031 | 21 | 329 | 0.0 | 0.0 | 0.00 | 1.09 | 0.00 | 96 | 1011.0 |
| 20260906050529 | 22 | 329 | 0.0 | 0.0 | 0.00 | 1.09 | 0.00 | 96 | 1011.1 |
| 20260906050033 | 22 | 329 | 0.0 | 0.0 | 0.00 | 1.09 | 0.00 | 96 | 1010.9 |
| 20260906045527 | 22 | 329 | 0.0 | 0.0 | 0.00 | 1.09 | 0.00 | 96 | 1010.7 |
| 20260906045028 | 22 | 329 | 0.0 | 0.0 | 0.00 | 1.09 | 0.00 | 96 | 1010.9 |
| 20260906044534 | 22 | 329 | 0.0 | 0.0 | 0.00 | 1.09 | 0.00 | 96 | 1010.7 |
| 20260906044022 | 22 | 329 | 0.0 | 0.0 | 0.00 | 1.09 | 0.00 | 96 | 1010.6 |
| 20260906043523 | 22 | 329 | 0.0 | 0.0 | 0.00 | 1.09 | 0.00 | 96 | 1010.6 |
| 20260906043020 | 22 | 329 | 0.0 | 0.0 | 0.00 | 1.09 | 0.00 | 96 | 1010.7 |
| 20260906042518 | 22 | 329 | 0.0 | 0.0 | 0.00 | 1.09 | 0.00 | 96 | 1010.6 |
| 20260906042017 | 22 | 329 | 0.0 | 0.0 | 0.00 | 1.09 | 0.00 | 96 | 1010.8 |
| 20260906041515 | 22 | 329 | 0.0 | 0.0 | 0.00 | 1.09 | 0.00 | 96 | 1010.9 |
| 20260906041015 | 22 | 329 | 0.0 | 0.0 | 0.00 | 1.09 | 0.00 | 96 | 1010.6 |
| 20260906040514 | 22 | 329 | 0.0 | 0.0 | 0.00 | 1.09 | 0.00 | 96 | 1010.5 |
| 20260906040016 | 22 | 329 | 0.0 | 0.0 | 0.00 | 1.09 | 1.09 | 96 | 1010.4 |
| 20260906035510 | 22 | 329 | 0.0 | 0.0 | 0.00 | 1.09 | 1.09 | 96 | 1010.6 |
| 20260906035011 | 22 | 329 | 0.0 | 0.0 | 0.00 | 1.09 | 1.09 | 96 | 1010.6 |
| 20260906034515 | 22 | 329 | 0.0 | 0.0 | 0.00 | 1.09 | 1.09 | 96 | 1010.8 |
| 20260906034011 | 22 | 329 | 0.0 | 0.0 | 0.00 | 1.09 | 1.09 | 96 | 1010.8 |
| 20260906033510 | 22 | 329 | 0.0 | 0.0 | 0.00 | 1.09 | 1.09 | 96 | 1010.6 |
| 20260906033026 | 22 | 329 | 0.0 | 0.0 | 0.00 | 1.09 | 1.09 | 96 | 1010.8 |
| 20260906032510 | 22 | 329 | 0.0 | 0.0 | 0.00 | 1.09 | 1.09 | 96 | 1010.9 |
| 20260906032010 | 22 | 329 | 0.0 | 0.0 | 0.00 | 1.09 | 1.09 | 96 | 1011.1 |
| 20260906031513 | 22 | 329 | 0.0 | 0.0 | 0.00 | 1.09 | 1.09 | 96 | 1010.9 |
| 20260906031009 | 22 | 329 | 0.0 | 0.0 | 0.00 | 1.09 | 1.09 | 96 | 1010.8 |
| 20260906030510 | 22 | 329 | 0.0 | 0.0 | 0.00 | 1.09 | 1.09 | 95 | 1011.1 |
| 20260906030013 | 22 | 329 | 0.0 | 0.0 | 0.00 | 1.09 | 1.09 | 96 | 1011.3 |
| 20260906025509 | 22 | 329 | 0.0 | 0.0 | 0.00 | 1.09 | 1.09 | 95 | 1011.3 |
| 20260906025012 | 22 | 329 | 0.0 | 0.0 | 0.00 | 1.09 | 1.09 | 95 | 1011.4 |
| 20260906024509 | 22 | 329 | 0.0 | 0.0 | 0.00 | 1.09 | 1.09 | 95 | 1011.7 |
| 20260906024012 | 22 | 329 | 0.0 | 0.0 | 0.00 | 1.09 | 1.09 | 95 | 1011.3 |
| 20260906023509 | 22 | 329 | 0.0 | 0.0 | 0.00 | 1.09 | 1.09 | 95 | 1011.3 |
| 20260906023008 | 22 | 329 | 0.0 | 0.0 | 0.00 | 1.09 | 1.09 | 95 | 1011.4 |
| 20260906022509 | 22 | 329 | 0.0 | 0.0 | 0.00 | 1.09 | 1.09 | 95 | 1011.4 |
| 20260906022010 | 22 | 329 | 0.0 | 0.0 | 0.00 | 1.09 | 1.09 | 95 | 1011.5 |
| 20260906021508 | 22 | 329 | 0.0 | 0.0 | 0.00 | 1.09 | 1.09 | 95 | 1011.3 |
| 20260906021007 | 22 | 329 | 0.0 | 0.0 | 0.00 | 1.09 | 1.09 | 95 | 1011.1 |
| 20260906020507 | 22 | 329 | 0.0 | 0.0 | 0.00 | 1.09 | 1.09 | 95 | 1011.1 |
| 20260906020008 | 22 | 329 | 0.0 | 0.0 | 0.00 | 1.09 | 1.09 | 95 | 1011.1 |
| 20260906015507 | 22 | 329 | 0.0 | 0.0 | 0.00 | 1.09 | 1.09 | 95 | 1011.2 |
| 20260906015007 | 22 | 329 | 0.0 | 0.0 | 0.00 | 1.09 | 1.09 | 95 | 1011.0 |
| 20260906014507 | 22 | 329 | 0.0 | 0.0 | 0.00 | 1.09 | 1.09 | 94 | 1011.1 |
| 20260906014006 | 23 | 329 | 0.0 | 0.0 | 0.00 | 1.09 | 1.09 | 94 | 1011.0 |
| 20260906013507 | 23 | 329 | 0.0 | 0.0 | 0.00 | 1.09 | 1.09 | 94 | 1010.9 |
| 20260906013012 | 23 | 329 | 0.0 | 0.0 | 0.00 | 1.09 | 1.09 | 94 | 1010.7 |
| 20260906012508 | 23 | 329 | 0.0 | 0.0 | 0.00 | 1.09 | 1.09 | 94 | 1010.5 |
| 20260906012009 | 23 | 329 | 0.0 | 0.0 | 0.00 | 1.09 | 1.09 | 94 | 1010.3 |
| 20260906011508 | 23 | 329 | 0.0 | 0.0 | 0.00 | 1.09 | 1.09 | 94 | 1010.3 |
| 20260906011005 | 23 | 329 | 0.0 | 0.0 | 0.00 | 1.09 | 1.09 | 94 | 1010.1 |
| 20260906010505 | 23 | 329 | 0.0 | 0.0 | 0.00 | 1.09 | 1.09 | 94 | 1010.1 |
| 20260906010005 | 23 | 329 | 0.0 | 0.0 | 0.00 | 1.09 | 1.09 | 93 | 1010.0 |
| 20260906005505 | 23 | 329 | 0.0 | 0.0 | 0.00 | 1.09 | 1.09 | 94 | 1010.0 |
| 20260906005005 | 23 | 329 | 0.0 | 0.0 | 0.00 | 1.09 | 1.09 | 93 | 1010.0 |
| 20260906004505 | 23 | 329 | 0.0 | 0.0 | 0.00 | 1.09 | 1.09 | 93 | 1010.2 |
| 20260906004004 | 23 | 329 | 0.0 | 0.0 | 0.00 | 1.09 | 1.09 | 93 | 1010.1 |
| 20260906003505 | 23 | 329 | 0.0 | 0.0 | 0.00 | 1.09 | 1.09 | 93 | 1010.0 |
| 20260906003006 | 23 | 329 | 0.0 | 0.0 | 0.00 | 1.09 | 1.09 | 92 | 1010.0 |
| 20260906002507 | 23 | 329 | 0.0 | 0.0 | 0.00 | 1.09 | 1.09 | 92 | 1010.0 |
| 20260906002004 | 23 | 329 | 0.0 | 0.0 | 0.00 | 1.09 | 1.09 | 92 | 1009.9 |
| 20260906001504 | 24 | 329 | 0.0 | 0.0 | 0.00 | 1.09 | 1.09 | 91 | 1010.0 |
| 20260906001003 | 24 | 329 | 0.0 | 0.0 | 0.00 | 1.09 | 1.09 | 91 | 1009.9 |
| 20260906000504 | 24 | 329 | 0.0 | 0.0 | 0.00 | 1.09 | 1.09 | 91 | 1010.1 |
| 20260906000004 | 25 | 329 | 0.0 | 0.0 | 0.00 | 1.09 | 1.09 | 91 | 1010.0 |
| 20260905235503 | 25 | 329 | 0.0 | 0.0 | 0.00 | 1.09 | 1.09 | 90 | 1010.2 |
| 20260905235006 | 25 | 329 | 0.0 | 0.0 | 0.00 | 1.09 | 1.09 | 89 | 1010.3 |
| 20260905234505 | 25 | 329 | 0.0 | 0.0 | 0.00 | 1.09 | 1.09 | 89 | 1010.2 |
| 20260905234003 | 25 | 329 | 0.0 | 0.0 | 0.00 | 1.09 | 1.09 | 88 | 1010.3 |
| 20260905233503 | 25 | 329 | 0.0 | 0.0 | 0.00 | 1.09 | 1.09 | 87 | 1010.3 |
| 20260905233003 | 26 | 329 | 0.0 | 0.0 | 0.00 | 1.09 | 1.09 | 87 | 1010.4 |
| 20260905232503 | 26 | 329 | 0.0 | 0.0 | 0.00 | 1.09 | 1.09 | 86 | 1010.4 |
| 20260905232004 | 26 | 329 | 0.0 | 0.0 | 0.00 | 1.09 | 1.09 | 86 | 1010.4 |
| 20260905231503 | 26 | 329 | 0.0 | 0.0 | 0.00 | 1.09 | 1.09 | 85 | 1010.4 |
| 20260905231002 | 26 | 329 | 0.0 | 0.0 | 0.00 | 1.09 | 1.09 | 85 | 1010.4 |
| 20260905230506 | 26 | 329 | 0.0 | 0.0 | 0.00 | 1.09 | 1.09 | 86 | 1010.4 |
| 20260905230004 | 26 | 329 | 0.0 | 0.0 | 0.00 | 1.09 | 1.09 | 85 | 1010.4 |
| 20260905225503 | 27 | 329 | 0.0 | 1.6 | 0.00 | 1.09 | 1.09 | 85 | 1010.2 |
| 20260905225002 | 27 | 329 | 0.0 | 1.6 | 0.00 | 1.09 | 1.09 | 84 | 1010.3 |
| 20260905224504 | 27 | 329 | 0.0 | 0.0 | 0.00 | 1.09 | 1.09 | 84 | 1010.2 |
| 20260905224001 | 27 | 329 | 0.0 | 0.0 | 0.00 | 1.09 | 1.09 | 84 | 1010.2 |
| 20260905223502 | 27 | 329 | 0.0 | 0.0 | 0.00 | 1.09 | 1.09 | 84 | 1010.4 |
| 20260905223002 | 27 | 329 | 0.0 | 0.0 | 0.00 | 1.09 | 1.09 | 83 | 1010.4 |
| 20260905222501 | 27 | 329 | 0.0 | 0.0 | 0.00 | 1.09 | 1.09 | 83 | 1010.3 |
| 20260905222000 | 27 | 329 | 0.0 | 0.0 | 0.00 | 1.09 | 1.09 | 82 | 1010.3 |
| 20260905221606 | 27 | 329 | 0.0 | 0.0 | 0.00 | 1.09 | 1.09 | 82 | 1010.3 |
| 20260905221100 | 27 | 329 | 0.0 | 3.2 | 0.00 | 1.09 | 1.09 | 80 | 1010.4 |
| 20260905220600 | 28 | 329 | 0.0 | 3.2 | 0.00 | 1.09 | 1.09 | 75 | 1010.3 |
| 20260905220108 | 28 | 329 | 0.0 | 4.8 | 0.00 | 1.09 | 1.09 | 72 | 1010.2 |
| 20260905215559 | 28 | 325 | 0.0 | 4.8 | 0.00 | 1.09 | 1.09 | 72 | 1010.1 |
| 20260905215100 | 28 | 325 | 0.0 | 1.6 | 0.00 | 1.09 | 1.09 | 72 | 1010.2 |
| 20260905214559 | 29 | 325 | 0.0 | 4.8 | 0.00 | 1.09 | 1.09 | 70 | 1010.1 |
| 20260905214059 | 29 | 325 | 0.0 | 6.4 | 0.00 | 1.09 | 1.09 | 69 | 1010.1 |
| 20260905213559 | 30 | 313 | 1.6 | 6.4 | 0.00 | 1.09 | 1.09 | 68 | 1010.1 |
| 20260905213058 | 30 | 310 | 0.0 | 3.2 | 0.00 | 1.09 | 1.09 | 69 | 1010.2 |
| 20260905212558 | 30 | 311 | 0.0 | 3.2 | 0.00 | 1.09 | 1.09 | 69 | 1010.0 |
| 20260905212057 | 29 | 311 | 0.0 | 3.2 | 0.00 | 1.09 | 1.09 | 67 | 1010.0 |
| 20260905211628 | 29 | 319 | 0.0 | 6.4 | 0.00 | 1.09 | 1.09 | 69 | 1010.1 |
| 20260905211057 | 29 | 319 | 1.6 | 6.4 | 0.00 | 1.09 | 1.09 | 67 | 1009.9 |
| 20260905210557 | 29 | 301 | 0.0 | 1.6 | 0.00 | 1.09 | 1.09 | 67 | 1009.8 |
| 20260905210057 | 29 | 309 | 0.0 | 4.8 | 0.00 | 1.09 | 1.09 | 69 | 1009.9 |
| 20260905205556 | 29 | 309 | 0.0 | 1.6 | 0.00 | 1.09 | 1.09 | 69 | 1009.7 |
| 20260905205057 | 28 | 309 | 0.0 | 6.4 | 0.00 | 1.09 | 1.09 | 69 | 1009.9 |
| 20260905204602 | 28 | 309 | 0.0 | 6.4 | 0.00 | 1.09 | 1.09 | 67 | 1009.9 |
| 20260905204057 | 29 | 304 | 0.0 | 8.0 | 0.00 | 1.09 | 1.09 | 67 | 1009.7 |
| 20260905203555 | 29 | 309 | 1.6 | 8.0 | 0.00 | 1.09 | 1.09 | 68 | 1009.8 |
| 20260905203114 | 29 | 327 | 0.0 | 9.7 | 0.00 | 1.09 | 1.09 | 71 | 1010.1 |
| 20260905202554 | 29 | 328 | 0.0 | 9.7 | 0.00 | 1.09 | 1.09 | 71 | 1010.1 |
| 20260905202053 | 28 | 320 | 0.0 | 6.4 | 0.00 | 1.09 | 1.09 | 73 | 1010.3 |
| 20260905201557 | 28 | 315 | 0.0 | 9.7 | 0.00 | 1.09 | 1.09 | 73 | 1010.2 |
| 20260905201054 | 28 | 316 | 0.0 | 9.7 | 0.00 | 1.09 | 1.09 | 70 | 1010.4 |
| 20260905200551 | 28 | 333 | 3.2 | 9.7 | 0.00 | 1.09 | 1.09 | 69 | 1010.4 |
| 20260905200057 | 29 | 326 | 1.6 | 9.7 | 0.00 | 1.09 | 1.09 | 69 | 1010.5 |
| 20260905195551 | 29 | 338 | 4.8 | 9.7 | 0.00 | 1.09 | 1.09 | 68 | 1010.5 |
| 20260905195050 | 29 | 326 | 0.0 | 6.4 | 0.00 | 1.09 | 1.09 | 69 | 1010.6 |
| 20260905194550 | 29 | 325 | 0.0 | 8.0 | 0.00 | 1.09 | 1.09 | 69 | 1010.6 |
| 20260905194049 | 29 | 319 | 0.0 | 8.0 | 0.00 | 1.09 | 1.09 | 69 | 1010.6 |
| 20260905193548 | 28 | 340 | 0.0 | 8.0 | 0.00 | 1.09 | 1.09 | 72 | 1010.6 |
| 20260905193048 | 28 | 340 | 0.0 | 6.4 | 0.00 | 1.09 | 1.09 | 72 | 1010.7 |
| 20260905192548 | 28 | 342 | 1.6 | 6.4 | 0.00 | 1.09 | 1.09 | 71 | 1010.8 |
| 20260905192048 | 28 | 321 | 1.6 | 6.4 | 0.00 | 1.09 | 1.09 | 71 | 1010.8 |
| 20260905191548 | 29 | 36 | 0.0 | 3.2 | 0.00 | 1.09 | 1.09 | 72 | 1010.8 |
| 20260905191047 | 28 | 55 | 0.0 | 4.8 | 0.00 | 1.09 | 1.09 | 71 | 1010.8 |
| 20260905190546 | 28 | 74 | 0.0 | 3.2 | 0.00 | 1.09 | 1.09 | 72 | 1011.0 |
| 20260905190046 | 28 | 80 | 0.0 | 1.6 | 0.00 | 1.27 | 1.09 | 70 | 1011.1 |
| 20260905185548 | 28 | 80 | 0.0 | 1.6 | 0.00 | 1.27 | 1.09 | 71 | 1011.1 |
| 20260905185045 | 28 | 80 | 0.0 | 3.2 | 0.00 | 1.27 | 1.09 | 71 | 1011.2 |
| 20260905184544 | 28 | 79 | 0.0 | 3.2 | 0.00 | 1.27 | 1.09 | 72 | 1011.3 |
| 20260905184043 | 28 | 79 | 0.0 | 6.4 | 0.00 | 1.27 | 1.09 | 72 | 1011.3 |
| 20260905183543 | 28 | 74 | 0.0 | 6.4 | 0.00 | 1.27 | 1.09 | 72 | 1011.5 |
| 20260905183043 | 28 | 73 | 0.0 | 3.2 | 0.00 | 1.27 | 1.09 | 74 | 1011.6 |
| 20260905182542 | 28 | 74 | 0.0 | 3.2 | 0.00 | 1.27 | 1.09 | 76 | 1011.4 |
| 20260905182042 | 27 | 73 | 0.0 | 1.6 | 0.00 | 1.27 | 1.09 | 75 | 1011.8 |
| 20260905181559 | 28 | 74 | 0.0 | 4.8 | 0.00 | 1.27 | 1.09 | 76 | 1011.7 |
| 20260905181040 | 27 | 74 | 0.0 | 4.8 | 0.00 | 1.27 | 1.09 | 76 | 1011.7 |
| 20260905180539 | 27 | 63 | 0.0 | 4.8 | 0.00 | 1.27 | 1.09 | 75 | 1011.7 |
| 20260905180038 | 27 | 57 | 0.0 | 4.8 | 0.00 | 1.42 | 1.09 | 76 | 1011.8 |
| 20260905175537 | 27 | 54 | 0.0 | 4.8 | 0.00 | 1.42 | 1.09 | 76 | 1011.8 |
| 20260905175041 | 27 | 53 | 0.0 | 4.8 | 0.00 | 1.42 | 1.09 | 76 | 1011.8 |
| 20260905174545 | 27 | 15 | 0.0 | 0.0 | 0.00 | 1.42 | 1.09 | 78 | 1011.8 |
| 20260905174035 | 26 | 13 | 0.0 | 1.6 | 0.00 | 1.42 | 1.09 | 79 | 1012.1 |
| 20260905173535 | 26 | 13 | 0.0 | 3.2 | 0.00 | 1.42 | 1.09 | 79 | 1011.9 |
| 20260905173035 | 26 | 10 | 0.0 | 3.2 | 0.00 | 1.42 | 1.09 | 79 | 1012.0 |
| 20260905172536 | 26 | 165 | 0.0 | 1.6 | 0.00 | 1.42 | 1.09 | 81 | 1012.1 |
| 20260905172035 | 26 | 168 | 0.0 | 3.2 | 0.00 | 1.42 | 1.09 | 81 | 1012.4 |
| 20260905171540 | 26 | 168 | 0.0 | 4.8 | 0.00 | 1.42 | 1.09 | 80 | 1012.3 |
| 20260905171034 | 26 | 167 | 0.0 | 4.8 | 0.00 | 1.42 | 1.09 | 79 | 1012.4 |
| 20260905170533 | 26 | 115 | 0.0 | 1.6 | 0.00 | 1.42 | 1.09 | 85 | 1012.3 |
| 20260905170032 | 26 | 115 | 0.0 | 1.6 | 0.00 | 1.42 | 1.09 | 81 | 1012.4 |
| 20260905165535 | 26 | 80 | 0.0 | 3.2 | 0.00 | 1.42 | 1.09 | 81 | 1012.4 |
| 20260905165031 | 26 | 80 | 0.0 | 3.2 | 0.00 | 1.42 | 1.09 | 82 | 1012.7 |
| 20260905164536 | 26 | 127 | 0.0 | 0.0 | 0.00 | 1.42 | 1.09 | 82 | 1012.5 |
| 20260905164032 | 26 | 127 | 0.0 | 3.2 | 0.00 | 1.42 | 1.09 | 84 | 1012.5 |
| 20260905163531 | 26 | 127 | 0.0 | 3.2 | 0.00 | 1.42 | 1.09 | 82 | 1012.6 |
| 20260905163030 | 26 | 108 | 0.0 | 4.8 | 0.00 | 1.42 | 1.09 | 84 | 1012.6 |
| 20260905162529 | 26 | 79 | 0.0 | 1.6 | 0.00 | 1.42 | 1.09 | 84 | 1012.6 |
| 20260905162029 | 25 | 79 | 0.0 | 1.6 | 0.00 | 1.42 | 1.09 | 83 | 1013.0 |
| 20260905161529 | 25 | 79 | 0.0 | 3.2 | 0.00 | 1.42 | 1.09 | 81 | 1012.9 |
| 20260905161028 | 25 | 80 | 0.0 | 4.8 | 0.00 | 1.42 | 1.09 | 85 | 1013.2 |
| 20260905160527 | 25 | 79 | 0.0 | 4.8 | 0.00 | 1.42 | 1.09 | 85 | 1013.0 |
| 20260905160046 | 25 | 99 | 0.0 | 3.2 | 0.00 | 1.42 | 1.09 | 84 | 1012.9 |
| 20260905155527 | 25 | 98 | 0.0 | 8.0 | 0.00 | 1.42 | 1.09 | 84 | 1012.9 |
| 20260905155027 | 25 | 150 | 0.0 | 8.0 | 0.00 | 1.42 | 1.09 | 87 | 1013.0 |
| 20260905154525 | 25 | 161 | 0.0 | 3.2 | 0.00 | 1.42 | 1.09 | 86 | 1013.1 |
| 20260905154024 | 25 | 111 | 0.0 | 0.0 | 0.00 | 1.42 | 1.09 | 86 | 1013.1 |
| 20260905153525 | 25 | 111 | 0.0 | 3.2 | 0.00 | 1.42 | 1.09 | 88 | 1012.3 |
| 20260905153023 | 24 | 111 | 0.0 | 4.8 | 0.00 | 1.42 | 1.09 | 88 | 1012.4 |
| 20260905152521 | 24 | 102 | 0.0 | 0.0 | 0.00 | 1.42 | 1.09 | 91 | 1011.9 |
| 20260905152020 | 24 | 102 | 0.0 | 6.4 | 0.00 | 1.42 | 1.09 | 90 | 1012.2 |
| 20260905151519 | 24 | 338 | 0.0 | 8.0 | 0.00 | 1.42 | 1.09 | 90 | 1012.4 |
| 20260905151016 | 24 | 337 | 0.0 | 8.0 | 0.00 | 1.42 | 1.09 | 90 | 1012.5 |
| 20260905150515 | 24 | 279 | 0.0 | 3.2 | 0.00 | 1.42 | 1.09 | 91 | 1012.7 |
| 20260905150014 | 23 | 279 | 0.0 | 0.0 | 0.00 | 1.42 | 1.09 | 91 | 1012.4 |
| 20260905145512 | 23 | 279 | 0.0 | 3.2 | 0.00 | 1.42 | 1.09 | 91 | 1012.2 |
| 20260905145016 | 23 | 279 | 0.0 | 3.2 | 0.00 | 1.42 | 1.09 | 91 | 1012.3 |
| 20260905144513 | 23 | 76 | 0.0 | 3.2 | 0.00 | 1.42 | 1.09 | 92 | 1012.2 |
| 20260905144014 | 23 | 103 | 0.0 | 4.8 | 0.00 | 1.42 | 1.09 | 93 | 1012.1 |
| 20260905143509 | 23 | 102 | 0.0 | 4.8 | 0.00 | 1.42 | 1.09 | 93 | 1011.9 |
| 20260905143009 | 23 | 350 | 0.0 | 4.8 | 0.00 | 1.42 | 1.09 | 92 | 1012.1 |
| 20260905142509 | 23 | 360 | 0.0 | 0.0 | 0.00 | 1.42 | 1.09 | 93 | 1012.3 |
| 20260905142009 | 23 | 360 | 0.0 | 0.0 | 0.00 | 1.42 | 1.09 | 94 | 1012.2 |
| 20260905141508 | 23 | 360 | 0.0 | 0.0 | 0.00 | 1.42 | 1.09 | 94 | 1012.1 |
| 20260905141009 | 23 | 360 | 0.0 | 0.0 | 0.00 | 1.42 | 1.09 | 95 | 1012.4 |
| 20260905140507 | 23 | 360 | 0.0 | 0.0 | 0.00 | 1.42 | 1.09 | 95 | 1012.5 |
| 20260905140007 | 22 | 360 | 0.0 | 0.0 | 0.00 | 1.42 | 1.09 | 95 | 1012.7 |
| 20260905135506 | 22 | 360 | 0.0 | 0.0 | 0.05 | 1.42 | 1.09 | 95 | 1012.9 |
| 20260905135006 | 22 | 360 | 0.0 | 0.0 | 0.46 | 1.42 | 1.09 | 95 | 1012.9 |
| 20260905134505 | 22 | 360 | 0.0 | 0.0 | 0.46 | 1.42 | 1.09 | 96 | 1013.1 |
| 20260905134009 | 22 | 360 | 0.0 | 0.0 | 0.46 | 1.42 | 1.09 | 96 | 1013.1 |
| 20260905133504 | 22 | 360 | 0.0 | 0.0 | 0.46 | 1.42 | 1.09 | 96 | 1013.3 |
| 20260905133005 | 22 | 360 | 0.0 | 0.0 | 0.46 | 1.42 | 1.09 | 96 | 1013.4 |
| 20260905132502 | 22 | 360 | 0.0 | 0.0 | 0.46 | 1.42 | 1.09 | 96 | 1013.7 |
| 20260905132202 | 22 | 360 | 0.0 | 0.0 | 0.46 | 1.42 | 1.09 | 96 | 1013.9 |
| 20260905131605 | 22 | 360 | 0.0 | 0.0 | 0.46 | 1.42 | 1.09 | 96 | 1013.7 |
| 20260905131058 | 22 | 360 | 0.0 | 0.0 | 0.46 | 1.42 | 1.09 | 96 | 1013.7 |
| 20260905130557 | 22 | 360 | 0.0 | 0.0 | 0.84 | 1.42 | 1.09 | 95 | 1013.6 |
| 20260905130057 | 22 | 360 | 0.0 | 0.0 | 1.09 | 1.42 | 1.09 | 95 | 1013.8 |
| 20260905125557 | 22 | 360 | 0.0 | 1.6 | 1.04 | 1.37 | 1.04 | 95 | 1013.9 |
| 20260905125055 | 22 | 360 | 0.0 | 1.6 | 0.64 | 0.97 | 0.64 | 95 | 1013.8 |
| 20260905124556 | 22 | 360 | 0.0 | 0.0 | 0.64 | 0.97 | 0.64 | 95 | 1013.5 |
| 20260905124054 | 22 | 360 | 0.0 | 0.0 | 0.64 | 0.97 | 0.64 | 95 | 1013.2 |
| 20260905123554 | 22 | 360 | 0.0 | 0.0 | 0.64 | 0.97 | 0.64 | 94 | 1013.4 |
| 20260905123054 | 22 | 360 | 0.0 | 0.0 | 0.64 | 0.97 | 0.64 | 93 | 1013.3 |
| 20260905122553 | 22 | 360 | 0.0 | 0.0 | 0.64 | 0.97 | 0.64 | 93 | 1013.5 |
| 20260905122051 | 22 | 360 | 0.0 | 8.0 | 0.64 | 0.97 | 0.64 | 93 | 1013.5 |
| 20260905121551 | 22 | 360 | 1.6 | 12.9 | 0.64 | 0.97 | 0.64 | 93 | 1013.5 |